This is the latest recevied weather packets stored in our database for station/object K1ABC. If no packets are shown the sender has not sent any weather packets the latest 10 day(s).
| Time | Temp. | Humidity | Pressure | Rain* | Wind** | Luminosity | Snow |
|---|---|---|---|---|---|---|---|
| 1777840266 | 12.22° C | 43% | 1005.1 hPa | 0 mm | - | - | - |
| 1777840137 | 12.78° C | 44% | 1005.1 hPa | 0 mm | - | - | - |
| 1777839882 | 12.78° C | 43% | 1005.2 hPa | 0 mm | - | - | - |
| 1777839752 | 12.78° C | 43% | 1005 hPa | 0 mm | - | - | - |
| 1777839175 | 13.33° C | 39% | 1005 hPa | 0 mm | - | - | - |
| 1777839051 | 13.89° C | 40% | 1005 hPa | 0 mm | - | - | - |
| 1777837737 | 12.78° C | 46% | 1005 hPa | 0 mm | - | - | - |
| 1777837375 | 12.22° C | 50% | 1005.1 hPa | 0 mm | - | - | - |
| 1777836740 | 12.22° C | 47% | 1005.1 hPa | 0 mm | - | - | - |
| 1777835270 | 12.22° C | 46% | 1005.2 hPa | 0 mm | - | - | - |
| 1777834402 | 12.22° C | 46% | 1005.3 hPa | 0 mm | - | - | - |
| 1777834274 | 11.67° C | 48% | 1005.4 hPa | 0 mm | - | - | - |
| 1777834031 | 11.67° C | 49% | 1005.2 hPa | 0 mm | - | - | - |
| 1777833013 | 11.11° C | 59% | 1005.4 hPa | 0 mm | - | - | - |
| 1777832762 | 11.11° C | 53% | 1005.3 hPa | 0 mm | - | - | - |
| 1777829866 | 11.11° C | 66% | 1005.2 hPa | 0 mm | - | - | - |
| 1777829497 | 10.56° C | 66% | 1005.2 hPa | 0 mm | - | - | - |
| 1777828434 | 9.44° C | 69% | 1005.4 hPa | 0 mm | - | - | - |
| 1777827418 | 8.89° C | 73% | 1005.4 hPa | 0 mm | - | - | - |
| 1777826421 | 8.33° C | 73% | 1005.5 hPa | 0 mm | - | - | - |
| 1777825971 | 8.33° C | 70% | 1005.5 hPa | 0 mm | - | - | - |
| 1777825849 | 8.33° C | 72% | 1005.6 hPa | 0 mm | - | - | - |
| 1777824322 | 8.89° C | 75% | 1005.6 hPa | 0 mm | - | - | - |
| 1777822015 | 8.33° C | 79% | 1005.4 hPa | 0 mm | - | - | - |
| 1777821756 | 8.33° C | 79% | 1005.4 hPa | 0 mm | - | - | - |
* Rain latest hour (hover to see other rain measurements)
** Current wind speed in m/s (hover to see current wind gust speed)